Time,TemperatureF,DewpointF,PressureIn,WindDirection,WindDirectionDegrees,WindSpeedMPH,WindSpeedGustMPH,Humidity,HourlyPrecipIn,Conditions,Clouds,dailyrainin,SoftwareType,DateUTC
2013-12-17 00:01:00,38.3,31.4,30.12,NE,45,0.0,0.2,76,0.00,,,0.00,WUHU216HW,2013-12-17 08:01:00,
2013-12-17 00:06:00,38.3,31.8,30.12,NNE,23,0.0,0.0,77,0.00,,,0.00,WUHU216HW,2013-12-17 08:06:00,
2013-12-17 00:11:00,38.2,31.2,30.12,NNE,23,0.0,0.0,76,0.00,,,0.00,WUHU216HW,2013-12-17 08:11:00,
2013-12-17 00:16:00,38.2,31.2,30.13,NNE,23,0.0,0.0,76,0.00,,,0.00,WUHU216HW,2013-12-17 08:16:00,
2013-12-17 00:21:00,38.2,31.6,30.12,NNE,23,0.0,0.0,77,0.00,,,0.00,WUHU216HW,2013-12-17 08:21:00,
2013-12-17 00:26:00,38.0,31.4,30.12,NNE,23,0.0,0.4,77,0.00,,,0.00,WUHU216HW,2013-12-17 08:26:00,
2013-12-17 00:31:00,38.0,31.4,30.12,NNE,23,0.0,0.4,77,0.00,,,0.00,WUHU216HW,2013-12-17 08:31:00,
2013-12-17 00:36:00,38.0,31.4,30.12,NNE,23,0.0,0.0,77,0.00,,,0.00,WUHU216HW,2013-12-17 08:36:00,
2013-12-17 00:41:00,37.8,31.2,30.12,NNE,23,0.0,0.0,77,0.00,,,0.00,WUHU216HW,2013-12-17 08:41:00,
2013-12-17 00:46:00,37.8,31.6,30.11,NNE,23,0.0,0.0,78,0.00,,,0.00,WUHU216HW,2013-12-17 08:46:00,
2013-12-17 00:51:00,37.8,31.6,30.12,NNE,23,0.0,0.0,78,0.00,,,0.00,WUHU216HW,2013-12-17 08:51:00,
2013-12-17 00:56:00,37.8,31.6,30.12,NNE,23,0.0,0.0,78,0.00,,,0.00,WUHU216HW,2013-12-17 08:56:00,
2013-12-17 01:01:00,37.8,31.6,30.12,NNE,23,0.0,0.0,78,0.00,,,0.00,WUHU216HW,2013-12-17 09:01:00,
2013-12-17 01:06:00,37.6,31.4,30.12,NNE,23,0.0,0.0,78,0.00,,,0.00,WUHU216HW,2013-12-17 09:06:00,
2013-12-17 01:11:00,37.6,31.4,30.12,NNE,23,0.0,0.0,78,0.00,,,0.00,WUHU216HW,2013-12-17 09:11:00,
2013-12-17 01:16:00,37.6,31.4,30.12,NNE,23,0.0,0.0,78,0.00,,,0.00,WUHU216HW,2013-12-17 09:16:00,
2013-12-17 01:21:00,37.4,31.2,30.12,NNE,23,0.0,0.0,78,0.00,,,0.00,WUHU216HW,2013-12-17 09:21:00,
2013-12-17 01:26:00,37.4,31.5,30.12,NNE,23,0.0,0.0,79,0.00,,,0.00,WUHU216HW,2013-12-17 09:26:00,
2013-12-17 01:31:00,37.6,31.7,30.12,NNE,23,0.0,0.0,79,0.00,,,0.00,WUHU216HW,2013-12-17 09:31:00,
2013-12-17 01:36:00,37.4,31.5,30.13,NNE,23,0.0,0.0,79,0.00,,,0.00,WUHU216HW,2013-12-17 09:36:00,
2013-12-17 01:41:00,37.4,31.5,30.13,NNE,23,0.0,0.0,79,0.00,,,0.00,WUHU216HW,2013-12-17 09:41:00,
2013-12-17 01:46:00,37.4,31.9,30.13,NE,45,0.0,0.4,80,0.00,,,0.00,WUHU216HW,2013-12-17 09:46:00,
2013-12-17 01:51:00,37.4,31.5,30.13,NE,45,0.0,0.4,79,0.00,,,0.00,WUHU216HW,2013-12-17 09:51:00,
2013-12-17 01:56:00,37.4,31.9,30.13,NE,45,0.0,0.0,80,0.00,,,0.00,WUHU216HW,2013-12-17 09:56:00,
2013-12-17 02:01:00,37.4,31.9,30.13,NE,45,0.0,0.0,80,0.00,,,0.00,WUHU216HW,2013-12-17 10:01:00,
2013-12-17 02:06:00,37.4,31.9,30.13,NE,45,0.0,0.0,80,0.00,,,0.00,WUHU216HW,2013-12-17 10:06:00,
2013-12-17 02:11:00,37.4,31.5,30.13,NE,45,0.0,0.0,79,0.00,,,0.00,WUHU216HW,2013-12-17 10:11:00,
2013-12-17 02:16:00,37.3,31.3,30.13,NE,45,0.0,0.4,79,0.00,,,0.00,WUHU216HW,2013-12-17 10:16:00,
2013-12-17 02:21:00,37.3,31.3,30.12,NE,45,0.0,0.4,79,0.00,,,0.00,WUHU216HW,2013-12-17 10:21:00,
2013-12-17 02:26:00,37.1,31.1,30.13,NE,45,0.0,0.0,79,0.00,,,0.00,WUHU216HW,2013-12-17 10:26:00,
2013-12-17 02:31:00,37.1,31.1,30.13,NE,45,0.0,0.0,79,0.00,,,0.00,WUHU216HW,2013-12-17 10:31:00,
2013-12-17 02:36:00,37.1,31.5,30.13,NNE,23,0.0,0.0,80,0.00,,,0.00,WUHU216HW,2013-12-17 10:36:00,
2013-12-17 02:41:00,36.9,31.3,30.13,NNE,23,0.0,0.0,80,0.00,,,0.00,WUHU216HW,2013-12-17 10:41:00,
2013-12-17 02:46:00,36.9,31.3,30.13,NNE,23,0.0,0.0,80,0.00,,,0.00,WUHU216HW,2013-12-17 10:46:00,
2013-12-17 02:51:00,36.9,31.3,30.13,WNW,293,0.0,0.0,80,0.00,,,0.00,WUHU216HW,2013-12-17 10:51:00,
2013-12-17 02:56:00,36.9,31.3,30.13,North,0,0.0,0.0,80,0.00,,,0.00,WUHU216HW,2013-12-17 10:56:00,
2013-12-17 03:01:00,36.9,31.6,30.13,North,0,0.0,0.0,81,0.00,,,0.00,WUHU216HW,2013-12-17 11:01:00,
2013-12-17 03:06:00,36.9,31.6,30.13,North,0,0.0,0.0,81,0.00,,,0.00,WUHU216HW,2013-12-17 11:06:00,
2013-12-17 03:11:00,36.9,31.3,30.13,NNE,23,0.0,0.0,80,0.00,,,0.00,WUHU216HW,2013-12-17 11:11:00,
2013-12-17 03:16:00,36.7,31.1,30.12,North,0,0.0,0.0,80,0.00,,,0.00,WUHU216HW,2013-12-17 11:16:00,
2013-12-17 03:21:00,36.7,31.4,30.12,North,0,0.0,0.0,81,0.00,,,0.00,WUHU216HW,2013-12-17 11:21:00,
2013-12-17 03:26:00,36.7,31.4,30.12,NNE,23,0.0,0.4,81,0.00,,,0.00,WUHU216HW,2013-12-17 11:26:00,
2013-12-17 03:31:00,36.7,31.4,30.12,NNE,23,0.0,0.4,81,0.00,,,0.00,WUHU216HW,2013-12-17 11:31:00,
2013-12-17 03:36:00,36.5,31.2,30.12,North,0,0.0,0.0,81,0.00,,,0.00,WUHU216HW,2013-12-17 11:36:00,
2013-12-17 03:41:00,36.5,31.5,30.12,North,0,0.0,0.0,82,0.00,,,0.00,WUHU216HW,2013-12-17 11:41:00,
2013-12-17 03:46:00,36.7,31.7,30.12,North,0,0.0,0.0,82,0.00,,,0.00,WUHU216HW,2013-12-17 11:46:00,
2013-12-17 03:51:00,36.7,31.7,30.12,North,0,0.0,0.0,82,0.00,,,0.00,WUHU216HW,2013-12-17 11:51:00,
2013-12-17 03:56:00,36.5,31.5,30.12,West,270,0.0,0.0,82,0.00,,,0.00,WUHU216HW,2013-12-17 11:56:00,
2013-12-17 04:01:00,36.5,31.5,30.12,West,270,0.0,0.0,82,0.00,,,0.00,WUHU216HW,2013-12-17 12:01:00,
2013-12-17 04:06:00,36.5,31.5,30.12,WNW,293,0.0,0.0,82,0.00,,,0.00,WUHU216HW,2013-12-17 12:06:00,
2013-12-17 04:11:00,36.5,31.5,30.12,WNW,293,0.0,0.0,82,0.00,,,0.00,WUHU216HW,2013-12-17 12:11:00,
2013-12-17 04:16:00,36.4,31.3,30.12,North,0,0.0,0.0,82,0.00,,,0.00,WUHU216HW,2013-12-17 12:16:00,
2013-12-17 04:21:00,36.4,31.3,30.12,North,0,0.0,0.0,82,0.00,,,0.00,WUHU216HW,2013-12-17 12:21:00,
2013-12-17 04:26:00,36.4,31.3,30.12,North,0,0.0,0.0,82,0.00,,,0.00,WUHU216HW,2013-12-17 12:26:00,
2013-12-17 04:31:00,36.4,31.7,30.12,North,0,0.0,0.0,83,0.00,,,0.00,WUHU216HW,2013-12-17 12:31:00,
2013-12-17 04:36:00,36.4,31.7,30.12,North,0,0.0,0.0,83,0.00,,,0.00,WUHU216HW,2013-12-17 12:36:00,
2013-12-17 04:41:00,36.4,31.7,30.12,North,0,0.0,0.0,83,0.00,,,0.00,WUHU216HW,2013-12-17 12:41:00,
2013-12-17 04:46:00,36.4,31.7,30.12,NNE,23,0.0,0.2,83,0.00,,,0.00,WUHU216HW,2013-12-17 12:46:00,
2013-12-17 04:51:00,36.4,32.0,30.12,NNE,23,0.0,0.2,84,0.00,,,0.00,WUHU216HW,2013-12-17 12:51:00,
2013-12-17 04:56:00,36.4,31.7,30.12,NNE,23,0.0,0.0,83,0.00,,,0.00,WUHU216HW,2013-12-17 12:56:00,
2013-12-17 05:01:00,36.4,31.7,30.12,NNE,23,0.0,0.0,83,0.00,,,0.00,WUHU216HW,2013-12-17 13:01:00,
2013-12-17 05:06:00,36.4,31.7,30.12,NNE,23,0.0,0.0,83,0.00,,,0.00,WUHU216HW,2013-12-17 13:06:00,
2013-12-17 05:11:00,36.4,32.0,30.12,NNE,23,0.0,0.0,84,0.00,,,0.00,WUHU216HW,2013-12-17 13:11:00,
2013-12-17 05:16:00,36.4,32.0,30.12,NNE,23,0.0,0.0,84,0.00,,,0.00,WUHU216HW,2013-12-17 13:16:00,
2013-12-17 05:21:00,36.4,32.0,30.12,NNE,23,0.0,0.0,84,0.00,,,0.00,WUHU216HW,2013-12-17 13:21:00,
2013-12-17 05:26:00,36.4,32.0,30.12,NNE,23,0.0,0.0,84,0.00,,,0.00,WUHU216HW,2013-12-17 13:26:00,
2013-12-17 05:31:00,36.4,32.0,30.12,NNE,23,0.0,0.0,84,0.00,,,0.00,WUHU216HW,2013-12-17 13:31:00,
2013-12-17 05:36:00,36.4,32.0,30.12,NNE,23,0.0,0.0,84,0.00,,,0.00,WUHU216HW,2013-12-17 13:36:00,
2013-12-17 05:41:00,36.4,32.0,30.12,NNE,23,0.0,0.0,84,0.00,,,0.00,WUHU216HW,2013-12-17 13:41:00,
2013-12-17 05:46:00,36.4,32.0,30.12,NNE,23,0.0,0.0,84,0.00,,,0.00,WUHU216HW,2013-12-17 13:46:00,
2013-12-17 05:51:00,36.4,32.2,30.12,NNE,23,0.0,0.0,85,0.00,,,0.00,WUHU216HW,2013-12-17 13:51:00,
2013-12-17 05:56:00,36.2,32.0,30.12,NNE,23,0.0,0.0,85,0.00,,,0.00,WUHU216HW,2013-12-17 13:56:00,
2013-12-17 06:01:00,36.2,31.8,30.12,NNE,23,0.0,0.0,84,0.00,,,0.00,WUHU216HW,2013-12-17 14:01:00,
2013-12-17 06:06:00,36.0,31.6,30.12,NNE,23,0.0,0.0,84,0.00,,,0.00,WUHU216HW,2013-12-17 14:06:00,
2013-12-17 06:11:00,36.0,31.6,30.13,NNE,23,0.0,0.0,84,0.00,,,0.00,WUHU216HW,2013-12-17 14:11:00,
2013-12-17 06:16:00,35.8,31.4,30.13,NNE,23,0.0,0.0,84,0.00,,,0.00,WUHU216HW,2013-12-17 14:16:00,
2013-12-17 06:21:00,35.8,31.7,30.12,NNE,23,0.2,0.2,85,0.00,,,0.00,WUHU216HW,2013-12-17 14:21:00,
2013-12-17 06:26:00,35.8,31.7,30.12,NNE,23,0.0,0.2,85,0.00,,,0.00,WUHU216HW,2013-12-17 14:26:00,
2013-12-17 06:31:00,35.6,31.5,30.12,NNE,23,0.0,0.0,85,0.00,,,0.00,WUHU216HW,2013-12-17 14:31:00,
2013-12-17 06:32:00,35.6,31.5,30.13,NNE,23,0.0,0.0,85,0.00,,,0.00,WUHU216HW,2013-12-17 14:32:00,
2013-12-17 06:37:00,35.6,31.5,30.13,NNE,23,0.0,0.0,85,0.00,,,0.00,WUHU216HW,2013-12-17 14:37:00,
2013-12-17 06:42:00,35.6,31.2,30.13,NNE,23,0.0,0.0,84,0.00,,,0.00,WUHU216HW,2013-12-17 14:42:00,
2013-12-17 06:47:00,35.5,31.3,30.13,NNE,23,0.0,0.0,85,0.00,,,0.00,WUHU216HW,2013-12-17 14:47:00,
2013-12-17 06:52:00,35.5,31.3,30.13,NNE,23,0.0,0.0,85,0.00,,,0.00,WUHU216HW,2013-12-17 14:52:00,
2013-12-17 06:57:00,35.3,30.9,30.13,NNE,23,0.0,0.0,84,0.00,,,0.00,WUHU216HW,2013-12-17 14:57:00,
2013-12-17 07:02:00,35.1,30.7,30.13,NNE,23,0.0,0.0,84,0.00,,,0.00,WUHU216HW,2013-12-17 15:02:00,
2013-12-17 07:07:00,35.1,30.7,30.13,NNE,23,0.0,0.2,84,0.00,,,0.00,WUHU216HW,2013-12-17 15:07:00,
2013-12-17 07:12:00,34.9,30.5,30.13,NNE,23,0.0,0.2,84,0.00,,,0.00,WUHU216HW,2013-12-17 15:12:00,
2013-12-17 07:17:00,34.9,30.5,30.13,NNE,23,0.0,0.0,84,0.00,,,0.00,WUHU216HW,2013-12-17 15:17:00,
2013-12-17 07:22:00,34.9,30.5,30.13,NNE,23,0.0,0.0,84,0.00,,,0.00,WUHU216HW,2013-12-17 15:22:00,
2013-12-17 07:27:00,34.7,30.3,30.13,NE,45,0.0,0.0,84,0.00,,,0.00,WUHU216HW,2013-12-17 15:27:00,
2013-12-17 07:32:00,34.7,30.3,30.13,NE,45,0.0,0.0,84,0.00,,,0.00,WUHU216HW,2013-12-17 15:32:00,
2013-12-17 07:37:00,34.7,30.3,30.13,NNE,23,0.0,0.0,84,0.00,,,0.00,WUHU216HW,2013-12-17 15:37:00,
2013-12-17 07:42:00,34.7,30.6,30.13,NNE,23,0.0,0.0,85,0.00,,,0.00,WUHU216HW,2013-12-17 15:42:00,
2013-12-17 07:47:00,34.7,30.6,30.13,NNE,23,0.0,0.0,85,0.00,,,0.00,WUHU216HW,2013-12-17 15:47:00,
2013-12-17 07:52:00,34.7,30.6,30.14,NNE,23,0.0,0.0,85,0.00,,,0.00,WUHU216HW,2013-12-17 15:52:00,
2013-12-17 07:57:00,34.9,30.8,30.14,NNE,23,0.0,0.0,85,0.00,,,0.00,WUHU216HW,2013-12-17 15:57:00,
2013-12-17 08:02:00,34.9,30.8,30.14,NNE,23,0.0,0.0,85,0.00,,,0.00,WUHU216HW,2013-12-17 16:02:00,
2013-12-17 08:07:00,35.1,31.0,30.14,NNE,23,0.0,0.0,85,0.00,,,0.00,WUHU216HW,2013-12-17 16:07:00,
2013-12-17 08:12:00,35.3,31.4,30.14,NNE,23,0.0,0.0,86,0.00,,,0.00,WUHU216HW,2013-12-17 16:12:00,
2013-12-17 08:17:00,35.5,31.6,30.14,NNE,23,0.0,0.0,86,0.00,,,0.00,WUHU216HW,2013-12-17 16:17:00,
2013-12-17 08:22:00,35.6,31.8,30.14,NNE,23,0.0,0.0,86,0.00,,,0.00,WUHU216HW,2013-12-17 16:22:00,
2013-12-17 08:27:00,35.8,32.2,30.15,NNE,23,0.0,0.0,87,0.00,,,0.00,WUHU216HW,2013-12-17 16:27:00,
2013-12-17 08:32:00,36.0,32.4,30.15,NNE,23,0.0,0.0,87,0.00,,,0.00,WUHU216HW,2013-12-17 16:32:00,
2013-12-17 08:37:00,36.4,32.8,30.15,NNE,23,0.0,0.0,87,0.00,,,0.00,WUHU216HW,2013-12-17 16:37:00,
2013-12-17 08:42:00,36.5,32.9,30.15,NNE,23,0.0,0.0,87,0.00,,,0.00,WUHU216HW,2013-12-17 16:42:00,
2013-12-17 08:47:00,36.9,33.3,30.15,NNE,23,0.0,0.0,87,0.00,,,0.00,WUHU216HW,2013-12-17 16:47:00,
2013-12-17 08:52:00,37.3,33.7,30.14,NE,45,0.0,0.0,87,0.00,,,0.00,WUHU216HW,2013-12-17 16:52:00,
2013-12-17 08:57:00,37.6,34.4,30.15,NE,45,0.0,0.0,88,0.00,,,0.00,WUHU216HW,2013-12-17 16:57:00,
2013-12-17 09:02:00,38.0,35.0,30.15,NE,45,0.0,0.0,89,0.00,,,0.00,WUHU216HW,2013-12-17 17:02:00,
2013-12-17 09:07:00,38.5,35.3,30.15,NE,45,0.0,0.0,88,0.00,,,0.00,WUHU216HW,2013-12-17 17:07:00,
2013-12-17 09:12:00,39.1,35.8,30.15,WNW,293,0.0,0.0,88,0.00,,,0.00,WUHU216HW,2013-12-17 17:12:00,
2013-12-17 09:17:00,39.6,36.4,30.15,WNW,293,0.0,0.0,88,0.00,,,0.00,WUHU216HW,2013-12-17 17:17:00,
2013-12-17 09:22:00,40.1,36.8,30.15,WNW,293,0.0,0.0,88,0.00,,,0.00,WUHU216HW,2013-12-17 17:22:00,
2013-12-17 09:27:00,40.9,37.3,30.15,West,270,0.0,0.0,87,0.00,,,0.00,WUHU216HW,2013-12-17 17:27:00,
2013-12-17 09:32:00,41.6,38.0,30.15,West,270,1.8,1.8,87,0.00,,,0.00,WUHU216HW,2013-12-17 17:32:00,
2013-12-17 09:37:00,42.5,38.5,30.15,WNW,293,0.9,1.8,86,0.00,,,0.00,WUHU216HW,2013-12-17 17:37:00,
2013-12-17 09:42:00,43.2,39.2,30.15,SW,225,1.8,1.8,86,0.00,,,0.00,WUHU216HW,2013-12-17 17:42:00,
2013-12-17 09:47:00,44.1,39.6,30.15,WSW,248,0.4,2.0,84,0.00,,,0.00,WUHU216HW,2013-12-17 17:47:00,
2013-12-17 09:52:00,44.6,39.8,30.15,WSW,248,1.1,2.0,83,0.00,,,0.00,WUHU216HW,2013-12-17 17:52:00,
2013-12-17 09:57:00,45.2,40.1,30.15,West,270,0.0,1.6,82,0.00,,,0.00,WUHU216HW,2013-12-17 17:57:00,
2013-12-17 10:02:00,45.7,40.2,30.15,WSW,248,0.4,0.9,81,0.00,,,0.00,WUHU216HW,2013-12-17 18:02:00,
2013-12-17 10:07:00,46.1,40.3,30.15,West,270,1.8,2.5,80,0.00,,,0.00,WUHU216HW,2013-12-17 18:07:00,
2013-12-17 10:12:00,46.6,40.5,30.15,West,270,1.6,2.5,79,0.00,,,0.00,WUHU216HW,2013-12-17 18:12:00,
2013-12-17 10:17:00,47.2,40.7,30.15,West,270,1.6,2.9,78,0.00,,,0.00,WUHU216HW,2013-12-17 18:17:00,
2013-12-17 10:22:00,47.7,41.1,30.15,WNW,293,1.6,2.9,78,0.00,,,0.00,WUHU216HW,2013-12-17 18:22:00,
2013-12-17 10:27:00,48.4,41.5,30.15,West,270,1.3,2.5,77,0.00,,,0.00,WUHU216HW,2013-12-17 18:27:00,
2013-12-17 10:32:00,49.0,41.3,30.14,SW,225,0.9,2.5,75,0.00,,,0.00,WUHU216HW,2013-12-17 18:32:00,
2013-12-17 10:37:00,49.5,41.9,30.14,WNW,293,1.8,2.5,75,0.00,,,0.00,WUHU216HW,2013-12-17 18:37:00,
2013-12-17 10:42:00,50.0,42.0,30.14,WSW,248,2.0,2.2,74,0.00,,,0.00,WUHU216HW,2013-12-17 18:42:00,
2013-12-17 10:47:00,50.4,42.0,30.14,WNW,293,0.9,2.2,73,0.00,,,0.00,WUHU216HW,2013-12-17 18:47:00,
2013-12-17 10:52:00,50.9,42.0,30.14,WNW,293,0.7,1.1,71,0.00,,,0.00,WUHU216HW,2013-12-17 18:52:00,
2013-12-17 10:57:00,51.3,42.3,30.15,WNW,293,1.1,1.8,71,0.00,,,0.00,WUHU216HW,2013-12-17 18:57:00,
2013-12-17 11:02:00,51.7,42.3,30.15,West,270,1.1,1.8,70,0.00,,,0.00,WUHU216HW,2013-12-17 19:02:00,
2013-12-17 11:07:00,52.0,42.7,30.14,WNW,293,2.2,2.2,70,0.00,,,0.00,WUHU216HW,2013-12-17 19:07:00,
2013-12-17 11:12:00,52.4,42.6,30.14,WNW,293,2.0,2.2,69,0.00,,,0.00,WUHU216HW,2013-12-17 19:12:00,
2013-12-17 11:17:00,52.9,42.2,30.13,WNW,293,2.5,2.5,67,0.00,,,0.00,WUHU216HW,2013-12-17 19:17:00,
2013-12-17 11:22:00,53.6,42.5,30.13,NNW,338,1.8,2.5,66,0.00,,,0.00,WUHU216HW,2013-12-17 19:22:00,
2013-12-17 11:27:00,54.2,43.0,30.13,WNW,293,2.5,2.5,66,0.00,,,0.00,WUHU216HW,2013-12-17 19:27:00,
2013-12-17 11:32:00,54.4,41.6,30.12,SSW,203,1.3,2.5,62,0.00,,,0.00,WUHU216HW,2013-12-17 19:32:00,
2013-12-17 11:37:00,54.5,41.8,30.12,WNW,293,1.3,2.0,62,0.00,,,0.00,WUHU216HW,2013-12-17 19:37:00,
2013-12-17 11:42:00,54.9,42.1,30.12,West,270,1.8,2.7,62,0.00,,,0.00,WUHU216HW,2013-12-17 19:42:00,
2013-12-17 11:47:00,55.1,42.3,30.11,SW,225,1.3,2.7,62,0.00,,,0.00,WUHU216HW,2013-12-17 19:47:00,
2013-12-17 11:52:00,55.3,42.0,30.11,NW,315,0.7,2.5,61,0.00,,,0.00,WUHU216HW,2013-12-17 19:52:00,
2013-12-17 11:57:00,55.6,42.4,30.11,NW,315,1.8,2.9,61,0.00,,,0.00,WUHU216HW,2013-12-17 19:57:00,
2013-12-17 12:02:00,55.8,42.6,30.11,WNW,293,2.5,2.9,61,0.00,,,0.00,WUHU216HW,2013-12-17 20:02:00,
2013-12-17 12:07:00,55.8,42.1,30.11,WNW,293,1.8,3.1,60,0.00,,,0.00,WUHU216HW,2013-12-17 20:07:00,
2013-12-17 12:12:00,56.2,42.0,30.10,NW,315,0.9,3.1,59,0.00,,,0.00,WUHU216HW,2013-12-17 20:12:00,
2013-12-17 12:17:00,56.5,42.4,30.10,NW,315,1.1,2.0,59,0.00,,,0.00,WUHU216HW,2013-12-17 20:17:00,
2013-12-17 12:22:00,56.7,42.1,30.09,WNW,293,0.0,1.3,58,0.00,,,0.00,WUHU216HW,2013-12-17 20:22:00,
2013-12-17 12:27:00,57.1,42.5,30.09,WNW,293,2.0,2.5,58,0.00,,,0.00,WUHU216HW,2013-12-17 20:27:00,
2013-12-17 12:32:00,57.2,42.1,30.08,West,270,1.6,2.5,57,0.00,,,0.00,WUHU216HW,2013-12-17 20:32:00,
2013-12-17 12:37:00,57.8,41.7,30.08,WNW,293,2.2,2.2,55,0.00,,,0.00,WUHU216HW,2013-12-17 20:37:00,
2013-12-17 12:42:00,58.3,41.2,30.08,WNW,293,2.2,2.7,53,0.00,,,0.00,WUHU216HW,2013-12-17 20:42:00,
2013-12-17 12:47:00,58.5,41.4,30.08,WSW,248,2.2,2.7,53,0.00,,,0.00,WUHU216HW,2013-12-17 20:47:00,
2013-12-17 12:52:00,58.7,41.6,30.07,West,270,1.3,2.5,53,0.00,,,0.00,WUHU216HW,2013-12-17 20:52:00,
2013-12-17 12:57:00,59.0,42.0,30.07,NW,315,0.4,2.5,53,0.00,,,0.00,WUHU216HW,2013-12-17 20:57:00,
2013-12-17 13:02:00,59.0,42.0,30.07,WNW,293,1.1,2.2,53,0.00,,,0.00,WUHU216HW,2013-12-17 21:02:00,
2013-12-17 13:07:00,59.4,41.8,30.07,WSW,248,2.0,3.4,52,0.00,,,0.00,WUHU216HW,2013-12-17 21:07:00,
2013-12-17 13:12:00,59.6,42.0,30.07,WNW,293,2.9,3.4,52,0.00,,,0.00,WUHU216HW,2013-12-17 21:12:00,
2013-12-17 13:17:00,59.8,41.6,30.06,West,270,3.1,3.1,51,0.00,,,0.00,WUHU216HW,2013-12-17 21:17:00,
2013-12-17 13:22:00,59.9,41.8,30.06,WSW,248,1.3,3.1,51,0.00,,,0.00,WUHU216HW,2013-12-17 21:22:00,
2013-12-17 13:27:00,60.1,41.9,30.06,WSW,248,0.7,2.5,51,0.00,,,0.00,WUHU216HW,2013-12-17 21:27:00,
2013-12-17 13:32:00,60.5,42.8,30.06,WNW,293,2.5,2.5,52,0.00,,,0.00,WUHU216HW,2013-12-17 21:32:00,
2013-12-17 13:37:00,60.7,42.9,30.06,WNW,293,1.8,2.5,52,0.00,,,0.00,WUHU216HW,2013-12-17 21:37:00,
2013-12-17 13:42:00,60.8,42.6,30.06,WNW,293,1.1,2.5,51,0.00,,,0.00,WUHU216HW,2013-12-17 21:42:00,
2013-12-17 13:47:00,61.2,42.5,30.05,WNW,293,2.2,2.2,50,0.00,,,0.00,WUHU216HW,2013-12-17 21:47:00,
2013-12-17 13:52:00,61.4,43.1,30.05,NW,315,1.8,2.5,51,0.00,,,0.00,WUHU216HW,2013-12-17 21:52:00,
2013-12-17 13:57:00,61.6,42.8,30.05,West,270,3.8,3.8,50,0.00,,,0.00,WUHU216HW,2013-12-17 21:57:00,
2013-12-17 14:02:00,61.7,42.4,30.06,North,0,0.4,3.8,49,0.00,,,0.00,WUHU216HW,2013-12-17 22:02:00,
2013-12-17 14:07:00,62.1,42.7,30.05,NW,315,0.4,3.1,49,0.00,,,0.00,WUHU216HW,2013-12-17 22:07:00,
2013-12-17 14:12:00,62.1,43.3,30.05,SW,225,1.3,2.5,50,0.00,,,0.00,WUHU216HW,2013-12-17 22:12:00,
2013-12-17 14:16:00,62.3,42.3,30.05,West,270,1.3,2.5,48,0.00,,,0.00,WUHU216HW,2013-12-17 22:16:00,
2013-12-17 14:21:00,62.5,42.4,30.05,WSW,248,0.7,2.5,48,0.00,,,0.00,WUHU216HW,2013-12-17 22:21:00,
2013-12-17 14:26:00,62.6,43.2,30.05,North,0,0.0,2.5,49,0.00,,,0.00,WUHU216HW,2013-12-17 22:26:00,
2013-12-17 14:31:00,62.8,43.3,30.05,WNW,293,1.6,2.5,49,0.00,,,0.00,WUHU216HW,2013-12-17 22:31:00,
2013-12-17 14:36:00,62.8,43.3,30.05,NNW,338,0.4,2.5,49,0.00,,,0.00,WUHU216HW,2013-12-17 22:36:00,
2013-12-17 14:41:00,63.0,42.9,30.05,WSW,248,1.1,1.6,48,0.00,,,0.00,WUHU216HW,2013-12-17 22:41:00,
2013-12-17 14:46:00,63.0,42.9,30.05,WNW,293,1.8,1.8,48,0.00,,,0.00,WUHU216HW,2013-12-17 22:46:00,
2013-12-17 14:51:00,63.0,42.3,30.05,West,270,0.0,2.5,47,0.00,,,0.00,WUHU216HW,2013-12-17 22:51:00,
2013-12-17 14:56:00,63.0,42.9,30.05,WNW,293,1.8,2.5,48,0.00,,,0.00,WUHU216HW,2013-12-17 22:56:00,
2013-12-17 15:01:00,62.6,43.2,30.05,WNW,293,1.1,2.2,49,0.00,,,0.00,WUHU216HW,2013-12-17 23:01:00,
2013-12-17 15:06:00,62.6,43.7,30.05,WSW,248,1.1,2.2,50,0.00,,,0.00,WUHU216HW,2013-12-17 23:06:00,
2013-12-17 15:11:00,62.8,43.3,30.05,WNW,293,0.4,1.6,49,0.00,,,0.00,WUHU216HW,2013-12-17 23:11:00,
2013-12-17 15:16:00,63.0,43.5,30.05,WNW,293,0.0,2.9,49,0.00,,,0.00,WUHU216HW,2013-12-17 23:16:00,
2013-12-17 15:21:00,63.0,44.1,30.05,NW,315,1.8,2.9,50,0.00,,,0.00,WUHU216HW,2013-12-17 23:21:00,
2013-12-17 15:26:00,63.0,43.5,30.04,WNW,293,2.7,2.7,49,0.00,,,0.00,WUHU216HW,2013-12-17 23:26:00,
2013-12-17 15:31:00,63.0,43.5,30.04,WNW,293,2.0,2.7,49,0.00,,,0.00,WUHU216HW,2013-12-17 23:31:00,
2013-12-17 15:36:00,63.0,43.5,30.05,West,270,2.0,2.5,49,0.00,,,0.00,WUHU216HW,2013-12-17 23:36:00,
2013-12-17 15:41:00,63.0,42.9,30.04,WNW,293,1.8,3.1,48,0.00,,,0.00,WUHU216HW,2013-12-17 23:41:00,
2013-12-17 15:46:00,62.8,43.3,30.04,West,270,0.4,3.1,49,0.00,,,0.00,WUHU216HW,2013-12-17 23:46:00,
2013-12-17 15:51:00,62.5,43.6,30.04,NW,315,0.0,1.1,50,0.00,,,0.00,WUHU216HW,2013-12-17 23:51:00,
2013-12-17 15:56:00,62.3,43.4,30.04,WNW,293,0.4,1.1,50,0.00,,,0.00,WUHU216HW,2013-12-17 23:56:00,
2013-12-17 16:01:00,61.7,42.9,30.04,WNW,293,0.0,0.4,50,0.00,,,0.00,WUHU216HW,2013-12-18 00:01:00,
2013-12-17 16:06:00,61.2,42.9,30.04,WNW,293,0.0,0.4,51,0.00,,,0.00,WUHU216HW,2013-12-18 00:06:00,
2013-12-17 16:11:00,61.0,43.3,30.04,WNW,293,0.0,0.0,52,0.00,,,0.00,WUHU216HW,2013-12-18 00:11:00,
2013-12-17 16:16:00,60.5,43.2,30.04,WNW,293,0.0,0.0,53,0.00,,,0.00,WUHU216HW,2013-12-18 00:16:00,
2013-12-17 16:21:00,60.1,42.9,30.04,WNW,293,0.0,0.0,53,0.00,,,0.00,WUHU216HW,2013-12-18 00:21:00,
2013-12-17 16:26:00,59.8,43.0,30.04,WNW,293,0.0,0.0,54,0.00,,,0.00,WUHU216HW,2013-12-18 00:26:00,
2013-12-17 16:31:00,59.4,43.2,30.03,NE,45,0.0,0.2,55,0.00,,,0.00,WUHU216HW,2013-12-18 00:31:00,
2013-12-17 16:36:00,58.9,43.1,30.04,NE,45,0.0,0.2,56,0.00,,,0.00,WUHU216HW,2013-12-18 00:36:00,
2013-12-17 16:41:00,58.5,43.3,30.03,NE,45,0.0,0.0,57,0.00,,,0.00,WUHU216HW,2013-12-18 00:41:00,
2013-12-17 16:46:00,58.0,43.3,30.03,ENE,68,0.4,0.4,58,0.00,,,0.00,WUHU216HW,2013-12-18 00:46:00,
2013-12-17 16:51:00,57.4,42.8,30.03,ENE,68,0.0,0.4,58,0.00,,,0.00,WUHU216HW,2013-12-18 00:51:00,
2013-12-17 16:56:00,56.9,42.8,30.03,ENE,68,0.0,0.4,59,0.00,,,0.00,WUHU216HW,2013-12-18 00:56:00,
2013-12-17 17:01:00,56.5,42.4,30.03,East,90,0.0,0.4,59,0.00,,,0.00,WUHU216HW,2013-12-18 01:01:00,
2013-12-17 17:05:00,56.0,41.9,30.03,ENE,68,0.4,0.7,59,0.00,,,0.00,WUHU216HW,2013-12-18 01:05:00,
2013-12-17 17:10:00,55.4,41.8,30.03,ENE,68,0.0,0.7,60,0.00,,,0.00,WUHU216HW,2013-12-18 01:10:00,
2013-12-17 17:15:00,55.1,41.4,30.03,ENE,68,0.0,0.4,60,0.00,,,0.00,WUHU216HW,2013-12-18 01:15:00,
2013-12-17 17:20:00,54.5,41.3,30.03,ENE,68,0.0,0.0,61,0.00,,,0.00,WUHU216HW,2013-12-18 01:20:00,
2013-12-17 17:26:00,54.2,41.1,30.03,ENE,68,0.0,0.0,61,0.00,,,0.00,WUHU216HW,2013-12-18 01:26:00,
2013-12-17 17:31:00,53.8,41.1,30.02,ENE,68,0.0,0.0,62,0.00,,,0.00,WUHU216HW,2013-12-18 01:31:00,
2013-12-17 17:36:00,53.3,40.6,30.02,ENE,68,0.0,0.0,62,0.00,,,0.00,WUHU216HW,2013-12-18 01:36:00,
2013-12-17 17:40:00,52.9,40.6,30.03,ENE,68,0.0,0.4,63,0.00,,,0.00,WUHU216HW,2013-12-18 01:40:00,
2013-12-17 17:45:00,52.6,40.3,30.03,ENE,68,0.0,0.4,63,0.00,,,0.00,WUHU216HW,2013-12-18 01:45:00,
2013-12-17 17:50:00,52.0,40.1,30.03,ENE,68,0.4,0.4,64,0.00,,,0.00,WUHU216HW,2013-12-18 01:50:00,
2013-12-17 17:55:00,51.5,39.7,30.03,NE,45,0.0,0.4,64,0.00,,,0.00,WUHU216HW,2013-12-18 01:55:00,
2013-12-17 18:00:00,51.1,39.3,30.03,NE,45,0.0,0.4,64,0.00,,,0.00,WUHU216HW,2013-12-18 02:00:00,
2013-12-17 18:05:00,50.8,39.4,30.03,NE,45,0.0,0.0,65,0.00,,,0.00,WUHU216HW,2013-12-18 02:05:00,
2013-12-17 18:10:00,50.4,38.6,30.03,NE,45,0.2,0.2,64,0.00,,,0.00,WUHU216HW,2013-12-18 02:10:00,
2013-12-17 18:15:00,50.0,38.7,30.03,NE,45,0.0,0.4,65,0.00,,,0.00,WUHU216HW,2013-12-18 02:15:00,
2013-12-17 18:20:00,49.9,38.9,30.04,NE,45,0.0,0.4,66,0.00,,,0.00,WUHU216HW,2013-12-18 02:20:00,
2013-12-17 18:25:00,49.5,38.6,30.03,NE,45,0.0,0.0,66,0.00,,,0.00,WUHU216HW,2013-12-18 02:25:00,
2013-12-17 18:30:00,49.1,38.6,30.03,NE,45,0.0,0.0,67,0.00,,,0.00,WUHU216HW,2013-12-18 02:30:00,
2013-12-17 18:35:00,48.8,38.3,30.03,NE,45,0.0,0.4,67,0.00,,,0.00,WUHU216HW,2013-12-18 02:35:00,
2013-12-17 18:40:00,48.6,38.1,30.03,NE,45,0.0,0.4,67,0.00,,,0.00,WUHU216HW,2013-12-18 02:40:00,
2013-12-17 18:45:00,48.4,38.4,30.03,NE,45,0.0,0.0,68,0.00,,,0.00,WUHU216HW,2013-12-18 02:45:00,
2013-12-17 18:50:00,48.1,38.0,30.03,ENE,68,0.0,0.2,68,0.00,,,0.00,WUHU216HW,2013-12-18 02:50:00,
2013-12-17 18:55:00,47.9,37.8,30.03,ENE,68,0.0,0.2,68,0.00,,,0.00,WUHU216HW,2013-12-18 02:55:00,
2013-12-17 19:00:00,47.7,37.6,30.03,NE,45,0.2,0.2,68,0.00,,,0.00,WUHU216HW,2013-12-18 03:00:00,
2013-12-17 19:05:00,47.5,37.4,30.03,NNE,23,0.0,0.2,68,0.00,,,0.00,WUHU216HW,2013-12-18 03:05:00,
2013-12-17 19:10:00,47.3,37.3,30.03,NNE,23,0.0,0.2,68,0.00,,,0.00,WUHU216HW,2013-12-18 03:10:00,
2013-12-17 19:16:00,47.2,37.5,30.03,NNE,23,0.0,0.0,69,0.00,,,0.00,WUHU216HW,2013-12-18 03:16:00,
2013-12-17 19:21:00,46.8,37.2,30.03,NNE,23,0.0,0.2,69,0.00,,,0.00,WUHU216HW,2013-12-18 03:21:00,
2013-12-17 19:26:00,46.6,37.0,30.03,NNE,23,0.0,0.2,69,0.00,,,0.00,WUHU216HW,2013-12-18 03:26:00,
2013-12-17 19:31:00,46.4,37.3,30.03,North,0,0.0,0.0,70,0.00,,,0.00,WUHU216HW,2013-12-18 03:31:00,
2013-12-17 19:36:00,46.4,37.3,30.03,North,0,0.0,0.0,70,0.00,,,0.00,WUHU216HW,2013-12-18 03:36:00,
2013-12-17 19:41:00,46.1,36.9,30.03,NNE,23,0.4,0.4,70,0.00,,,0.00,WUHU216HW,2013-12-18 03:41:00,
2013-12-17 19:46:00,45.9,37.1,30.03,NNE,23,0.0,0.4,71,0.00,,,0.00,WUHU216HW,2013-12-18 03:46:00,
2013-12-17 19:51:00,45.7,36.9,30.03,NNE,23,0.2,0.2,71,0.00,,,0.00,WUHU216HW,2013-12-18 03:51:00,
2013-12-17 19:56:00,45.7,37.3,30.03,NNE,23,0.0,0.2,72,0.00,,,0.00,WUHU216HW,2013-12-18 03:56:00,
2013-12-17 20:01:00,45.5,37.1,30.03,NNE,23,0.0,0.0,72,0.00,,,0.00,WUHU216HW,2013-12-18 04:01:00,
2013-12-17 20:06:00,45.4,36.9,30.03,NNE,23,0.0,0.0,72,0.00,,,0.00,WUHU216HW,2013-12-18 04:06:00,
2013-12-17 20:11:00,45.0,36.6,30.03,NNE,23,0.0,0.0,72,0.00,,,0.00,WUHU216HW,2013-12-18 04:11:00,
2013-12-17 20:16:00,45.0,36.6,30.03,NNE,23,0.0,0.0,72,0.00,,,0.00,WUHU216HW,2013-12-18 04:16:00,
2013-12-17 20:21:00,44.8,36.4,30.03,NNE,23,0.0,0.0,72,0.00,,,0.00,WUHU216HW,2013-12-18 04:21:00,
2013-12-17 20:26:00,44.6,36.2,30.03,NNE,23,0.0,0.0,72,0.00,,,0.00,WUHU216HW,2013-12-18 04:26:00,
2013-12-17 20:30:00,44.5,36.4,30.03,NNE,23,0.0,0.0,73,0.00,,,0.00,WUHU216HW,2013-12-18 04:30:00,
2013-12-17 20:35:00,44.5,36.4,30.03,NNE,23,0.0,0.0,73,0.00,,,0.00,WUHU216HW,2013-12-18 04:35:00,
2013-12-17 20:40:00,44.3,36.2,30.02,NNE,23,0.0,0.0,73,0.00,,,0.00,WUHU216HW,2013-12-18 04:40:00,
2013-12-17 20:45:00,44.3,36.5,30.03,NNE,23,0.0,0.0,74,0.00,,,0.00,WUHU216HW,2013-12-18 04:45:00,
2013-12-17 20:50:00,44.1,36.4,30.02,NNE,23,0.0,0.0,74,0.00,,,0.00,WUHU216HW,2013-12-18 04:50:00,
2013-12-17 20:55:00,44.1,36.4,30.02,NNE,23,0.0,0.0,74,0.00,,,0.00,WUHU216HW,2013-12-18 04:55:00,
2013-12-17 21:00:00,43.9,36.2,30.02,NNE,23,0.0,0.0,74,0.00,,,0.00,WUHU216HW,2013-12-18 05:00:00,
2013-12-17 21:01:00,43.9,36.2,30.02,NNE,23,0.0,0.0,74,0.00,,,0.00,WUHU216HW,2013-12-18 05:01:00,
2013-12-17 21:06:00,43.9,36.2,30.02,NNE,23,0.0,0.0,74,0.00,,,0.00,WUHU216HW,2013-12-18 05:06:00,
2013-12-17 21:11:00,43.9,36.2,30.02,NNE,23,0.0,0.0,74,0.00,,,0.00,WUHU216HW,2013-12-18 05:11:00,
2013-12-17 21:16:00,43.9,36.2,30.02,NNE,23,0.0,0.0,74,0.00,,,0.00,WUHU216HW,2013-12-18 05:16:00,
2013-12-17 21:21:00,43.7,36.0,30.02,NNE,23,0.0,0.0,74,0.00,,,0.00,WUHU216HW,2013-12-18 05:21:00,
2013-12-17 21:26:00,43.6,36.2,30.02,NNE,23,0.0,0.0,75,0.00,,,0.00,WUHU216HW,2013-12-18 05:26:00,
2013-12-17 21:31:00,43.6,36.2,30.02,NNE,23,0.0,0.0,75,0.00,,,0.00,WUHU216HW,2013-12-18 05:31:00,
2013-12-17 21:36:00,43.4,36.0,30.02,NNE,23,0.0,0.0,75,0.00,,,0.00,WUHU216HW,2013-12-18 05:36:00,
2013-12-17 21:41:00,43.4,36.3,30.02,NNE,23,0.0,0.0,76,0.00,,,0.00,WUHU216HW,2013-12-18 05:41:00,
2013-12-17 21:46:00,43.4,36.3,30.02,NNE,23,0.0,0.0,76,0.00,,,0.00,WUHU216HW,2013-12-18 05:46:00,
2013-12-17 21:51:00,43.2,36.5,30.02,NNE,23,0.0,0.0,77,0.00,,,0.00,WUHU216HW,2013-12-18 05:51:00,
2013-12-17 21:56:00,43.2,36.5,30.02,East,90,0.0,0.0,77,0.00,,,0.00,WUHU216HW,2013-12-18 05:56:00,
2013-12-17 22:01:00,43.2,36.5,30.02,NNE,23,0.0,0.7,77,0.00,,,0.00,WUHU216HW,2013-12-18 06:01:00,
2013-12-17 22:06:00,43.0,36.3,30.02,NNE,23,0.0,0.7,77,0.00,,,0.00,WUHU216HW,2013-12-18 06:06:00,
2013-12-17 22:11:00,42.8,36.5,30.02,NW,315,0.0,0.2,78,0.00,,,0.00,WUHU216HW,2013-12-18 06:11:00,
2013-12-17 22:16:00,42.8,36.5,30.02,West,270,0.0,0.4,78,0.00,,,0.00,WUHU216HW,2013-12-18 06:16:00,
2013-12-17 22:21:00,42.8,36.5,30.02,North,0,0.0,0.4,78,0.00,,,0.00,WUHU216HW,2013-12-18 06:21:00,
2013-12-17 22:26:00,42.8,36.5,30.02,North,0,0.0,0.0,78,0.00,,,0.00,WUHU216HW,2013-12-18 06:26:00,
2013-12-17 22:31:00,42.7,36.5,30.02,NNE,23,0.2,0.2,79,0.00,,,0.00,WUHU216HW,2013-12-18 06:31:00,
2013-12-17 22:36:00,42.7,36.5,30.02,NNE,23,0.0,0.2,79,0.00,,,0.00,WUHU216HW,2013-12-18 06:36:00,
2013-12-17 22:41:00,42.5,36.4,30.02,North,0,0.0,0.0,79,0.00,,,0.00,WUHU216HW,2013-12-18 06:41:00,
2013-12-17 22:46:00,42.5,36.4,30.02,NNE,23,0.2,0.2,79,0.00,,,0.00,WUHU216HW,2013-12-18 06:46:00,
2013-12-17 22:51:00,42.5,36.4,30.02,NNE,23,0.0,0.2,79,0.00,,,0.00,WUHU216HW,2013-12-18 06:51:00,
2013-12-17 22:56:00,42.5,36.4,30.02,NNE,23,0.0,0.2,79,0.00,,,0.00,WUHU216HW,2013-12-18 06:56:00,
2013-12-17 23:01:00,42.5,36.4,30.02,NE,45,0.4,0.4,79,0.00,,,0.00,WUHU216HW,2013-12-18 07:01:00,
2013-12-17 23:06:00,42.5,36.4,30.02,NE,45,0.0,0.4,79,0.00,,,0.00,WUHU216HW,2013-12-18 07:06:00,
2013-12-17 23:11:00,42.3,36.2,30.02,NE,45,0.7,0.7,79,0.00,,,0.00,WUHU216HW,2013-12-18 07:11:00,
2013-12-17 23:16:00,42.3,36.2,30.02,NNE,23,0.0,0.9,79,0.00,,,0.00,WUHU216HW,2013-12-18 07:16:00,
2013-12-17 23:21:00,42.3,36.2,30.01,NNE,23,0.0,0.9,79,0.00,,,0.00,WUHU216HW,2013-12-18 07:21:00,
2013-12-17 23:26:00,42.1,36.0,30.02,SE,135,0.0,0.0,79,0.00,,,0.00,WUHU216HW,2013-12-18 07:26:00,
2013-12-17 23:31:00,42.1,36.0,30.02,ENE,68,0.0,0.0,79,0.00,,,0.00,WUHU216HW,2013-12-18 07:31:00,
2013-12-17 23:36:00,41.9,36.2,30.01,NNE,23,0.0,0.4,80,0.00,,,0.00,WUHU216HW,2013-12-18 07:36:00,
2013-12-17 23:41:00,41.9,35.8,30.01,NNE,23,0.0,0.4,79,0.00,,,0.00,WUHU216HW,2013-12-18 07:41:00,
2013-12-17 23:46:00,41.8,36.0,30.01,ENE,68,0.2,0.2,80,0.00,,,0.00,WUHU216HW,2013-12-18 07:46:00,
2013-12-17 23:51:00,41.8,36.0,30.01,ENE,68,0.4,0.4,80,0.00,,,0.00,WUHU216HW,2013-12-18 07:51:00,
2013-12-17 23:56:00,41.6,35.8,30.00,NNE,23,0.0,0.7,80,0.00,,,0.00,WUHU216HW,2013-12-18 07:56:00,